Weather History for Baraboo, WI

Change the Weather History Date:

Monday, August 19, 2013

  Actual Average Record
Temperature  
Mean Temperature 68 °F -  
Max Temperature 82 °F 79 °F 96 °F (1983)
Min Temperature 55 °F 55 °F 41 °F (1981)
Cooling Degree Days 4    
Growing Degree Days 18 (Base 50)    
Moisture  
Dew Point 56 °F    
Average Humidity 67    
Maximum Humidity 90    
Minimum Humidity 36    
Precipitation  
Precipitation 0.00 in - - ()
Sea Level Pressure  
Sea Level Pressure 30.07 in    
Wind  
Wind Speed 4 mph (SW)    
Max Wind Speed 14 mph    
Max Gust Speed 20 mph    
Visibility 10 miles    
Events      
Averages and records for this station are not official NWS values.
T = Trace of Precipitation, MM = Missing Value Source: NWS Daily Summary

Daily Weather History Graph

Daily Weather History Graph

Search for Another Location

Airport:

Trip Planner

Search our weather history database for the weather conditions in past years. The results will help you decide how hot, cold, wet, or windy it might be!

Date:

Astronomy

Aug. 19, 2013 Rise Set
Actual Time 6:08 AM CDT 7:55 PM CDT
Civil Twilight 5:38 AM CDT 8:26 PM CDT
Nautical Twilight 5:00 AM CDT 9:03 PM CDT
Astronomical Twilight 4:20 AM CDT 9:43 PM CDT
Moon 6:46 PM CDT (8/19) 4:26 AM CDT (8/19)
Length of Visible Light 14h 48m
Length of Day
13h 47m
Waxing Gibbous, 97% of the Moon is Illuminated
Aug 19
Waxing Gibbous
Aug 20
Full
Aug 28
Last Quarter
Sep 5
New
Sep 12
First Quarter

Hourly Weather History & Observations

Time (CDT) Temp. Heat Index Dew Point Humidity Pressure Visibility Wind Dir Wind Speed Gust Speed Precip Events Conditions
12:15 AM 58.8 °F - 54.1 °F 84% 30.11 in 10.0 mi South 5.8 mph - N/A   Clear
12:35 AM 58.5 °F - 54.1 °F 86% 30.11 in 10.0 mi South 3.5 mph - N/A   Clear
12:55 AM 59.0 °F - 54.5 °F 85% 30.10 in 10.0 mi South 3.5 mph - N/A   Clear
1:15 AM 59.4 °F - 54.0 °F 82% 30.10 in 10.0 mi South 3.5 mph - N/A   Clear
1:35 AM 58.1 °F - 52.7 °F 82% 30.10 in 10.0 mi SSE 3.5 mph - N/A   Clear
1:55 AM 58.5 °F - 54.3 °F 86% 30.10 in 10.0 mi Calm Calm - N/A   Clear
2:15 AM 58.3 °F - 54.0 °F 86% 30.10 in 10.0 mi Calm Calm - N/A   Clear
2:35 AM 58.1 °F - 53.6 °F 85% 30.09 in 10.0 mi South 3.5 mph - N/A   Clear
2:55 AM 57.4 °F - 53.8 °F 88% 30.09 in 10.0 mi Calm Calm - N/A   Clear
3:15 AM 56.8 °F - 53.2 °F 88% 30.09 in 10.0 mi Calm Calm - N/A   Clear
3:35 AM 55.8 °F - 52.0 °F 87% 30.09 in 10.0 mi Calm Calm - N/A   Clear
3:55 AM 56.7 °F - 53.8 °F 90% 30.09 in 10.0 mi Calm Calm - N/A   Clear
4:15 AM 56.3 °F - 52.5 °F 87% 30.09 in 10.0 mi Calm Calm - N/A   Clear
4:35 AM 57.9 °F - 53.8 °F 86% 30.09 in 10.0 mi Calm Calm - N/A   Clear
4:55 AM 59.5 °F - 53.2 °F 80% 30.09 in 10.0 mi Calm Calm - N/A   Clear
5:15 AM 59.2 °F - 54.1 °F 83% 30.09 in 10.0 mi Calm Calm - N/A   Clear
5:35 AM 60.8 °F - 54.0 °F 78% 30.09 in 10.0 mi SW 4.6 mph - N/A   Clear
5:55 AM 56.5 °F - 51.6 °F 84% 30.09 in 10.0 mi Calm Calm - N/A   Clear
6:15 AM 57.0 °F - 52.3 °F 84% 30.10 in 10.0 mi Calm Calm - N/A   Clear
6:35 AM 58.5 °F - 53.4 °F 83% 30.10 in 10.0 mi Calm Calm - N/A   Clear
6:55 AM 60.8 °F - 55.2 °F 82% 30.09 in 10.0 mi Calm Calm - N/A   Clear
7:15 AM 61.7 °F - 56.1 °F 82% 30.10 in 10.0 mi Calm Calm - N/A   Clear
7:35 AM 62.8 °F - 57.2 °F 82% 30.09 in 10.0 mi Calm Calm - N/A   Clear
7:55 AM 65.3 °F - 57.6 °F 76% 30.09 in 10.0 mi SW 6.9 mph - N/A   Clear
8:15 AM 66.9 °F - 57.6 °F 72% 30.09 in 10.0 mi SW 4.6 mph - N/A   Clear
8:35 AM 68.9 °F - 57.7 °F 68% 30.09 in 10.0 mi WSW 6.9 mph - N/A   Clear
8:55 AM 70.7 °F - 57.2 °F 62% 30.09 in 10.0 mi SW 6.9 mph - N/A   Clear
9:15 AM 72.1 °F - 56.5 °F 58% 30.09 in 10.0 mi SW 8.1 mph - N/A   Clear
9:35 AM 74.7 °F - 56.3 °F 53% 30.09 in 10.0 mi SW 9.2 mph - N/A   Clear
9:55 AM 75.9 °F - 56.7 °F 51% 30.09 in 10.0 mi SSW 9.2 mph - N/A   Clear
10:15 AM 76.3 °F - 56.7 °F 51% 30.09 in 10.0 mi SW 8.1 mph - N/A   Clear
10:35 AM 77.4 °F - 56.8 °F 49% 30.09 in 10.0 mi WSW 8.1 mph - N/A   Clear
10:55 AM 77.0 °F - 57.2 °F 50% 30.09 in 10.0 mi WSW 6.9 mph - N/A   Clear
11:15 AM 77.2 °F - 57.7 °F 51% 30.09 in 10.0 mi SW 6.9 mph - N/A   Clear
11:35 AM 77.4 °F - 57.4 °F 50% 30.08 in 10.0 mi WSW 9.2 mph - N/A   Clear
11:55 AM 78.6 °F - 58.5 °F 50% 30.08 in 10.0 mi SW 11.5 mph - N/A   Clear
12:15 PM 79.2 °F - 57.9 °F 48% 30.08 in 10.0 mi WSW 6.9 mph - N/A   Clear
12:35 PM 79.3 °F - 57.6 °F 47% 30.07 in 10.0 mi WSW 10.4 mph - N/A   Clear
12:55 PM 80.8 °F 80.9 °F 56.8 °F 44% 30.07 in 10.0 mi SW 8.1 mph 17.3 mph N/A   Clear
1:15 PM 81.0 °F 80.9 °F 56.5 °F 43% 30.07 in 10.0 mi SW 12.7 mph 16.1 mph N/A   Scattered Clouds
1:35 PM 81.7 °F 81.2 °F 55.2 °F 40% 30.06 in 10.0 mi SW 11.5 mph - N/A   Scattered Clouds
1:55 PM 81.5 °F 81.0 °F 55.0 °F 40% 30.06 in 10.0 mi WSW 13.8 mph 19.6 mph N/A   Scattered Clouds
2:15 PM 82.9 °F 82.0 °F 54.9 °F 38% 30.06 in 10.0 mi SW 11.5 mph 17.3 mph N/A   Scattered Clouds
2:35 PM 82.4 °F 81.3 °F 53.2 °F 36% 30.05 in 10.0 mi SW 13.8 mph 19.6 mph N/A   Scattered Clouds
2:55 PM 81.7 °F 81.1 °F 54.1 °F 39% 30.05 in 10.0 mi WSW 10.4 mph - N/A   Clear
3:35 PM 82.0 °F 81.6 °F 56.1 °F 41% 30.04 in 10.0 mi SW 13.8 mph 17.3 mph N/A   Scattered Clouds
3:55 PM 81.0 °F 80.8 °F 56.1 °F 42% 30.04 in 10.0 mi SW 11.5 mph 17.3 mph N/A   Scattered Clouds
4:15 PM 80.6 °F 80.6 °F 56.1 °F 43% 30.04 in 10.0 mi WSW 12.7 mph - N/A   Scattered Clouds
4:35 PM 80.4 °F 80.7 °F 57.4 °F 45% 30.04 in 10.0 mi WSW 11.5 mph 17.3 mph N/A   Scattered Clouds
4:55 PM 78.8 °F - 55.8 °F 45% 30.04 in 10.0 mi WSW 10.4 mph - N/A   Scattered Clouds
5:15 PM 77.7 °F - 56.5 °F 48% 30.04 in 10.0 mi SW 8.1 mph - N/A   Clear
5:35 PM 77.0 °F - 57.4 °F 51% 30.04 in 10.0 mi SW 6.9 mph - N/A   Clear
5:55 PM 76.3 °F - 58.1 °F 53% 30.04 in 10.0 mi SW 5.8 mph - N/A   Clear
6:15 PM 76.1 °F - 58.5 °F 54% 30.04 in 10.0 mi SW 5.8 mph - N/A   Clear
6:35 PM 75.2 °F - 59.0 °F 57% 30.03 in 10.0 mi SW 6.9 mph - N/A   Clear
6:55 PM 74.7 °F - 59.5 °F 59% 30.03 in 10.0 mi SW 5.8 mph - N/A   Clear
7:15 PM 74.3 °F - 59.5 °F 60% 30.03 in 10.0 mi SW 4.6 mph - N/A   Clear
7:35 PM 72.7 °F - 59.9 °F 64% 30.03 in 10.0 mi SW 4.6 mph - N/A   Clear
7:55 PM 70.9 °F - 59.9 °F 68% 30.03 in 10.0 mi SSW 4.6 mph - N/A   Clear
8:15 PM 69.1 °F - 59.5 °F 72% 30.03 in 10.0 mi South 3.5 mph - N/A   Clear
8:35 PM 66.6 °F - 59.9 °F 79% 30.03 in 10.0 mi Calm Calm - N/A   Clear
8:55 PM 66.0 °F - 59.4 °F 79% 30.03 in 10.0 mi South 3.5 mph - N/A   Clear
9:15 PM 66.2 °F - 59.9 °F 80% 30.03 in 10.0 mi South 4.6 mph - N/A   Clear
9:35 PM 66.2 °F - 59.2 °F 78% 30.03 in 10.0 mi Calm Calm - N/A   Clear
9:55 PM 64.8 °F - 59.0 °F 82% 30.03 in 10.0 mi South 3.5 mph - N/A   Clear
10:15 PM 64.9 °F - 59.2 °F 82% 30.04 in 10.0 mi SSW 4.6 mph - N/A   Clear
10:35 PM 64.6 °F - 58.8 °F 82% 30.03 in 10.0 mi Calm Calm - N/A   Clear
10:55 PM 64.4 °F - 59.0 °F 83% 30.03 in 10.0 mi Calm Calm - N/A   Clear
11:15 PM 63.9 °F - 58.5 °F 83% 30.03 in 10.0 mi SSW 3.5 mph - N/A   Clear
11:35 PM 63.0 °F - 58.1 °F 84% 30.03 in 10.0 mi Calm Calm - N/A   Clear
11:55 PM 63.7 °F - 58.8 °F 84% 30.03 in 10.0 mi SSW 3.5 mph - N/A   Clear